sat.trackr.live / text

‹ back to catalog

STARLINK-4331

NORAD 53046 · 2022-077D

PAYLOAD ACTIVE UNKNOWN

§ Identity

Operator
Country
US
Launch date
2022-07-11
Launch site
AFWTR
Launch vehicle
Mass (kg)
RCS (m²)

Purposes: comms

External: N2YO · Heavens-Above · Gunter

§ Orbital elements

Epoch: 2026-09-18T17:24:36.148032Z

Period
93.91 min
Inclination
97.2853°
Eccentricity
0.0001458
Mean motion
15.33440015 rev/d
Perigee alt
464.6 km
Apogee alt
466.6 km
Semi-major
6,843.7 km
B*
-4.4121e-5
RAAN
77.4504°
Arg perigee
92.9552°
Mean anomaly
267.1858°
Rev number
23,008

§ Raw data

STARLINK-43311 53046U 22077D   26261.72541838 -.00001499  00000+0 -44121-4 0  99912 53046  97.2853  77.4504 0001458  92.9552 267.1858 15.33440015230087

JSON: /api/v1/satellites/53046 · /tle

For live sub-satellite position, see the globe view (requires WebGL).

§ Visibility from observer

Set your observer location to see the next 7 days of passes ≥ 10°. The values pass through the URL so the page stays shareable.

No JS? Fill the form by hand. The geolocation button needs JavaScript.